Location: Kopernik Observatory
(42.0014°N, 76.0372°W)
Time: 14:48:28
(UTC-05:00)

Daily predictions for brighter satellites

Satellite Brightness Start Highest point End
(mag) Time Altitude Azimuth Time Altitude Azimuth Time Altitude Azimuth
Tsikada Rocket 4.4 17:25:23 10° SSW 17:31:45 75° W 17:38:12 10° N
Cosmos 1844 3.8 17:25:58 10° NNW 17:31:47 88° ENE 17:37:35 10° SSE
Cosmos 1726 2.6 17:30:52 10° N 17:34:28 40° ENE 17:38:02 10° SSE
Cosmos 1500 Rocket 3.5 17:33:59 10° S 17:38:15 67° E 17:42:36 10° NNE
Cosmos 540 Rocket 3.7 17:34:28 10° S 17:39:28 52° ESE 17:44:29 10° NNE
USA 215 3.7 17:36:49 10° E 17:42:54 42° NNE 17:48:59 10° NW
Cosmos 2237 Rocket 2.3 17:38:00 10° S 17:43:32 60° ESE 17:49:05 10° NNE
Cosmos 44 Rocket 3.6 17:38:47 10° SW 17:43:55 77° WNW 17:48:59 10° NNE
Cosmos 2084 3.4 17:40:20 10° SW 17:44:13 68° NW 17:48:00 10° NNE
NOSS 0 Rocket 4.0 17:39:17 10° SSW 17:45:30 75° ESE 17:51:43 10° NNE
COSMOS 2428 3.8 17:42:59 10° SW 17:48:24 44° WNW 17:53:52 10° NNE
BREEZE-M DEB (TANK) 3.8 17:40:06 10° NW 17:48:40 55° SW 17:51:50 10° SSE
Cosmos 1300 2.7 17:46:10 10° N 17:49:59 62° E 17:53:47 10° SSE
SL-16 R/B 3.1 17:45:49 10° SSE 17:50:35 29° ESE 17:55:24 10° NE
Cosmos 1340 Rocket 3.5 17:47:23 10° SSE 17:50:52 31° E 17:54:23 10° NNE
Cosmos 1634 Rocket 4.0 17:45:18 10° N 17:51:31 84° E 17:57:40 10° S
SL-14 R/B 3.3 17:48:14 10° S 17:52:05 58° E 17:56:01 10° NNE
Abrixas 2.5 17:50:34 10° SW 17:53:28 63° SSE 17:55:48 15° ENE
Cosmos 1461 4.0 17:50:40 10° S 17:54:12 26° ESE 17:57:06 13° ENE
Cosmos 2058 3.2 17:50:52 10° SSE 17:54:47 45° E 17:58:42 10° NNE
Cosmos 1484 Rocket 2.8 17:51:38 10° SSE 17:55:32 68° ENE 17:59:31 10° N
Cosmos 2297 4.0 17:55:58 10° NNW 18:01:24 44° ENE 18:06:50 10° SE
Cosmos 304 Rocket 4.3 17:57:05 10° S 18:01:33 40° ESE 18:06:02 10° NE
Lacrosse 5 3.9 18:04:20 10° NW 18:07:20 15° N 18:10:20 10° NNE
Meteor 1-28 Rocket 3.2 18:11:12 10° NNE 18:14:52 55° E 18:18:31 10° S
OTV 4 3.3 18:14:18 10° WSW 18:16:01 14° SSW 18:17:43 10° SSE
Cosmos 1125 Rocket 4.2 18:11:00 10° NNW 18:16:07 58° WSW 18:21:11 10° S
Cosmos 1356 Rocket 4.0 18:12:54 10° SSE 18:16:29 33° E 18:19:10 15° NE
Transit 2A Rocket 4.5 18:12:13 10° NNW 18:16:33 86° WSW 18:20:52 10° SSE
Meteor 2-10 3.9 18:12:06 10° N 18:17:14 83° E 18:22:29 10° SSE
CZ-2C R/B 4.5 18:13:29 10° SSW 18:17:52 31° W 18:22:10 10° NW
CENTAUR R/B 4.0 18:12:56 10° WSW 18:18:32 33° NW 18:24:48 10° NNE
YAOGAN 1 4.4 18:15:23 10° SSW 18:19:19 34° W 18:23:18 10° NNW
COSMO-SKYMED 1 2.6 18:15:01 10° NNE 18:19:23 88° W 18:23:43 10° SSW
Cosmos 1707 Rocket 3.8 18:15:19 10° N 18:19:28 43° ENE 18:23:36 10° SSE
DMSP B5D1-3 4.5 18:15:41 10° NNE 18:20:46 67° ESE 18:25:50 10° S
USA 229 DEB 4.5 18:15:28 10° S 18:21:15 30° ESE 18:24:43 20° ENE
USA 229 4.5 18:15:36 10° S 18:21:21 30° ESE 18:24:46 20° ENE
Spot 2 Rocket 4.3 18:20:01 10° ESE 18:24:14 28° ENE 18:28:27 10° N
Resurs 01 Rocket 2.5 18:26:17 23° E 18:27:37 27° ENE 18:31:21 10° N
FENGYUN 3A 4.2 18:23:33 10° SE 18:28:17 33° ENE 18:33:03 10° N
Lacrosse 5 rocket 1.6 18:26:06 10° NW 18:29:51 61° SW 18:33:49 10° SSE
Meteor 1-11 4.4 18:24:34 10° SSW 18:30:15 78° W 18:36:03 10° N
Cosmos 1666 Rocket 3.7 18:26:11 10° SSE 18:30:20 47° E 18:34:14 12° NNE
Cosmos 1980 4.5 18:26:18 10° SW 18:31:49 52° WNW 18:37:23 10° NNE
Timation 1 Rocket 4.3 18:26:42 10° NNW 18:32:46 85° ENE 18:38:46 10° SSE
METEOR-M 4.0 18:28:07 10° SSE 18:33:25 68° ENE 18:38:45 10° N
Cosmos 1184 Rocket 3.5 18:30:38 10° SSE 18:33:17 33° ESE 18:33:17 33° ESE
Cosmos 1538 Rocket 4.0 18:31:23 10° S 18:36:33 59° ESE 18:40:44 16° NNE
Cosmos 2151 4.3 18:32:53 10° SSW 18:36:51 41° WNW 18:40:51 10° N
Iridium 4 Rocket 3.6 18:35:33 10° SSE 18:39:39 34° E 18:39:48 34° E
Cosmos 2279 Rocket 4.3 18:34:01 10° NNW 18:40:12 70° W 18:46:23 10° S
ATLAS 5 CENTAUR R/B 4.2 18:39:15 10° N 18:41:35 12° NNE 18:41:50 12° NNE
FengYun 1-2 T 4.3 18:41:00 10° SE 18:46:21 51° ENE 18:51:41 10° N
ALOS 2.5 18:42:13 10° SE 18:46:40 45° ENE 18:51:07 10° N
NOAA 12 4.1 18:44:20 10° SSE 18:49:33 81° WSW 18:54:51 10° NNW
Cosmos 2333 Rocket 3.8 18:46:15 10° WSW 18:51:16 32° NW 18:56:19 10° N
Cosmos 2219 Rocket 4.1 18:48:03 10° WSW 18:52:40 25° NW 18:57:17 10° N
Cosmos 1626 2.2 18:50:44 10° SSW 18:54:27 76° W 18:56:51 21° N
Cosmos 1603 4.2 18:49:58 10° S 18:55:01 36° ESE 18:55:01 36° ESE
SJ-6B 3.0 18:54:31 10° S 18:58:35 74° WSW 19:02:43 10° NNW
Nadezhda 4 Rocket 3.9 18:54:08 10° S 19:00:24 87° E 19:06:45 10° N
Cosmos 2242 Rocket 3.5 18:56:10 10° N 19:00:34 63° E 19:04:58 10° SSE
Cosmos 2278 Rocket 4.2 18:57:51 10° NW 19:02:39 29° WSW 19:07:26 10° SSW
Cosmos 1703 4.3 18:59:08 10° SSW 19:02:52 45° WNW 19:06:38 10° N
Cosmos 1455 2.4 19:02:23 10° NNW 19:06:10 69° W 19:09:57 10° S
SL-19 R/B 4.3 19:07:10 10° SSE 19:13:06 87° WSW 19:18:45 10° NNW
Lacrosse 4 Rocket 2.5 19:09:53 10° NNW 19:12:09 31° N 19:12:09 31° N
Cosmos 773 Rocket 3.9 19:12:41 10° SSW 19:17:51 89° WNW 19:19:20 48° NNE
Cosmos 1092 Rocket 3.9 19:14:24 10° S 19:20:45 90° ENE 19:27:08 10° N
USA 215 3.4 19:21:36 25° SE 19:25:39 70° SW 19:32:13 10° NW
Sich 1 4.2 19:22:03 10° SSW 19:26:17 43° WNW 19:29:41 15° N
Cosmos 2237 Rocket 4.3 19:23:41 10° WSW 19:28:01 22° NW 19:32:23 10° N
Cosmos 2369 Rocket 3.7 19:27:04 10° N 19:29:27 23° N 19:29:27 23° N
Cosmos 1461 4.4 19:29:32 10° WSW 19:33:15 31° NW 19:33:36 30° NW
Cosmos 1633 Rocket 4.3 19:29:37 10° SSW 19:33:47 41° WNW 19:36:07 22° NNW
SL-16 R/B 3.3 19:29:12 10° SW 19:34:31 41° WNW 19:37:58 20° N
Cosmos 2195 Rocket 4.3 19:39:51 10° S 19:45:58 88° W 19:46:13 83° N
Lacrosse 5 4.2 19:48:44 10° NNW 19:50:06 14° NNW 19:50:06 14° NNW
CZ-3A R/B 3.7 19:55:40 10° WNW 20:00:03 47° SW 20:01:30 39° S
Resurs 01 Rocket 3.4 20:03:50 29° W 20:04:00 29° W 20:07:54 10° NW
CZ-4C R/B 4.3 20:00:06 10° NNW 20:02:59 21° N 20:02:59 21° N
USA 229 DEB 4.1 20:05:03 10° SW 20:11:48 58° NW 20:12:13 57° NW
USA 229 4.1 20:05:09 10° SW 20:11:54 58° NW 20:12:17 58° NW
